DELTA 1 DEB, 7042

Orbit data source: Space-Track

DELTA 1 DEB, 7042 is space debris in SSO originally from a launch on Tue, 06 Nov 1973 UTC launched from the Air Force Western Test Range (AFWTR). Debris objects in space refer to the collection of defunct objects orbiting the Earth. Examples of debris include non-operational satellites, rocket bodies, and fragments generated from explosions, collisions, or faulty payload assembly.

Loading next visibility...
Identifier
7042, 1973-086AJ
Orbit
SSO
Country
Flag of USUS
Related business
Manufacturer
Unknown
Mission
Spacecraft
Bus & Motor
Unknown
Mass
Unknown
Launch date (UTC)
1973-11-06 (52 years ago)
Launch vehicle
Unknown
Launch site
Air Force Western Test Range (AFWTR)
Object type
Payload
Rocket body
Debris
Shape & HBR
Unknown shape, 0.1 m
Radar Cross Section
Small (<0.1 m²)

Expand to show TLE details & history
Last TLE update: 3 hours ago

TLE from 3 hours ago
0 DELTA 1 DEB
1 07042U 73086AJ  26124.65538510  .00000693  00000-0  89461-3 0  9994
2 07042 101.7290   6.5788 0314946 175.3823 185.0329 13.48280751556378
Epoch: 2026-05-04T15:43Z
TLE epoch observation values (Epoch: 2026-05-04T15:43:45.272Z)
Latitude
0.00003°
Longitude
-91.9013°
Altitude
1,315.338 km
Speed
7.086 km/s
True Right ascension
00h 26m 18s
True Declination
0° 00' 00"
Sunlit
Object was in daylight at epoch
Visualization orbit readout
Latitude
Unknown
Longitude
Unknown
Altitude
Unknown
Speed
Unknown
Apparent Right ascension
Unknown
Apparent Declination
Unknown
Sunlit
N/A
Visualization observer readout
Local Sidereal Time
02:32:14
Azimuth
Unknown
Elevation
Unknown
Doppler factor
Unknown
Orbital elements
Apogee altitude
1,310.77 km
Perigee altitude
841.24 km
Semi-major axis
7,454.142 km
Eccentricity
0.03149
Inclination
101.729°
RAAN
6.5788°
Arg. of periapsis
175.3823°
True anomaly
184.72826°
Mean anomaly
185.0329°
Eccentric anomaly
184.87941°
Mean motion
3.37246 °/min
Orbital period
106.75 mins
BSTAR
0.00089461
Loading maneuver chart data...
Computing Atmospheric mass density...

Documentation

Showing up to 5 results
|